Regional Weather Roundup
Issued by NWS

Home | Current Version | Previous Version | Text Only | Print | Product List | Glossary Off
Versions: 1 2 3 4 5 6 7 8 9 10 11 12 13 14 15 16 17 18 19 20 21 22 23 24 25 26 27 28 29 30 31 32 33 34 35 36 37 38 39 40 41 42 43 44 45 46 47 48 49 50

000
ASUS45 KCYS 230610
RWRWY

WYOMING REGIONAL WEATHER ROUNDUP
NATIONAL WEATHER SERVICE CHEYENNE WY
1200 AM MDT SAT MAY 23 2015

NOTE:  "FAIR" INDICATES FEW OR NO CLOUDS BELOW 12,000 FEET
WITH NO SIGNIFICANT WEATHER AND/OR OBSTRUCTIONS TO VISIBILITY.

WYZ001-230700-
YELLOWSTONE NATIONAL PARK

CITY           SKY/WX    TMP DP  RH WIND       PRES   REMARKS
LK YELLOWSTONE   N/A     39  37  92 CALM      30.03S
6HR MIN TEMP:  39; 6HR MAX TEMP:  53; 6HR PCP:  0.10;

W YELLOWSTONE  NOT AVBL

$$
WYZ002>013-054>058-071-098>099-230700-
NORTHERN WYOMING

CITY           SKY/WX    TMP DP  RH WIND       PRES   REMARKS
JACKSON        CLOUDY    45  43  93 CALM      29.98S
CODY           CLOUDY    48  48 100 CALM      29.96S
GREYBULL       LGT RAIN  55  52  89 NW6       29.92F
6HR MIN TEMP:  55; 6HR MAX TEMP:  63; 6HR PCP:  0.02;

WORLAND        CLOUDY    53  49  86 NE3       29.93S
6HR MIN TEMP:  53; 6HR MAX TEMP:  56; 6HR PCP: TRACE;

SHERIDAN       MOCLDY    50  44  80 SE13      29.96R
6HR MIN TEMP:  50; 6HR MAX TEMP:  58;

BUFFALO        CLOUDY    46  44  93 S9        30.01F
6HR MIN TEMP:  46; 6HR MAX TEMP:  50; 6HR PCP:  0.03;

GILLETTE       CLOUDY    47  42  83 SE12      30.01F
6HR MIN TEMP:  45; 6HR MAX TEMP:  54;

HULETT         FAIR      45  41  87 S3        30.04F
NEWCASTLE      CLOUDY    45  41  87 SE12      30.06F

$$
WYZ014>020-022>026-101>103-230700-
CENTRAL WYOMING

CITY           SKY/WX    TMP DP  RH WIND       PRES   REMARKS
BIG PINEY      LGT RAIN  42  40  92 S3        30.00S
6HR MIN TEMP:  42; 6HR MAX TEMP:  46; 6HR PCP: TRACE;

PINEDALE       LGT RAIN  41  41 100 CALM      30.01S
DUBOIS         DRIZZLE   41  37  87 SE9       29.99S
LANDER         CLOUDY    47  43  86 NW3       29.94S
6HR MIN TEMP:  47; 6HR MAX TEMP:  53; 6HR PCP:  0.25;

RIVERTON       CLOUDY    48  46  93 NE7       29.95S
6HR MIN TEMP:  48; 6HR MAX TEMP:  51;

CASPER         CLOUDY    44  43  96 E8        29.97S
6HR MIN TEMP:  44; 6HR MAX TEMP:  49; 6HR PCP:  0.07;

DOUGLAS        CLOUDY    45  44  97 SE17G24   30.02R
6HR MIN TEMP:  45; 6HR MAX TEMP:  51; 6HR PCP:  0.02;


$$
WYZ021-027>030-104>119-230700-
SOUTHERN WYOMING

CITY           SKY/WX    TMP DP  RH WIND       PRES   REMARKS
EVANSTON       CLOUDY    39  37  92 SE6       30.00R WCI  35
6HR MIN TEMP:  38; 6HR MAX TEMP:  44; 6HR PCP:  0.08;

KEMMERER       CLOUDY    41  37  87 CALM      30.00S
FORT BRIDGER   MOCLDY    41  41 100 S3        30.03R
ROCK SPRINGS   CLOUDY    42  38  85 SW7       30.01R
6HR MIN TEMP:  41; 6HR MAX TEMP:  52; 6HR PCP:  0.15;

DIXON          CLOUDY    42  39  89 CALM      30.06S
RAWLINS        FAIR      39  36  89 CALM      30.01S
6HR MIN TEMP:  39; 6HR MAX TEMP:  54; 6HR PCP: TRACE;

SARATOGA       FAIR      41  36  81 MISG      30.03S
LARAMIE        FAIR      40  38  93 S16       30.03S WCI  31
6HR MIN TEMP:  38; 6HR MAX TEMP:  50; 6HR PCP:  0.02;

CHEYENNE       CLOUDY    43  42  97 S10       30.05S
6HR MIN TEMP:  43; 6HR MAX TEMP:  47; 6HR PCP: TRACE;

TORRINGTON     CLOUDY    45  43  93 SE13      30.03S
6HR MIN TEMP:  45; 6HR MAX TEMP:  49; 6HR PCP:  0.03;

PINE BLUFFS    CLOUDY    43  41  93 SE3       30.07R

$$



USA.gov is the U.S. government's official web portal to all federal, state and local government web resources and services.